Overview Statistics Trail Chart Weather Telemetry Raw packets
 

This is the latest recevied weather packets stored in our database for station/object K4KMJ. If no packets are shown the sender has not sent any weather packets the latest 10 day(s).

<< 107 108 109 110 111 112 113 >>
Time Temp. Humidity Pressure Rain* Wind** Luminosity Snow
1787843703 31.11° C 83% 1019.5 hPa 0 mm - 798 W/m² -
1787843398 31.67° C 84% 1019.6 hPa 0 mm - 729 W/m² -
1787843095 30.56° C 85% 1019.6 hPa 0 mm - 589 W/m² -
1787842794 31.11° C 86% 1019.6 hPa 0 mm - 729 W/m² -
1787842490 31.11° C 89% 1019.7 hPa 0 mm - 691 W/m² -
1787842183 30.56° C 93% 1019.4 hPa 0 mm - 681 W/m² -
1787841883 30° C 95% 1019.5 hPa 0 mm - 626 W/m² -
1787841580 29.44° C 99% 1019.5 hPa 0 mm - 647 W/m² -
1787841278 28.89° C 99% 1019.5 hPa 0 mm - 579 W/m² -
1787840974 28.33° C 99% 1019.6 hPa 0 mm - 554 W/m² -
1787840669 28.33° C 99% 1019.2 hPa 0 mm - 536 W/m² -
1787840364 28.33° C 99% 1019.4 hPa 0 mm - 525 W/m² -
1787840059 27.78° C 99% 1019.3 hPa 0 mm - 511 W/m² -
1787839754 27.78° C 99% 1019.5 hPa 0 mm - 494 W/m² -
1787839448 27.78° C 99% 1019 hPa 0 mm - 479 W/m² -
1787839143 27.78° C 99% 1019.2 hPa 0 mm - 465 W/m² -
1787838842 27.22° C 99% 1019.1 hPa 0 mm - 449 W/m² -
1787838541 27.22° C 99% 1019.1 hPa 0 mm - 432 W/m² -
1787838241 27.22° C 99% 1019.1 hPa 0 mm - 414 W/m² -
1787837940 26.67° C 99% 1019 hPa 0.51 mm - 393 W/m² -
1787837639 26.67° C 99% 1019.1 hPa 0.51 mm - 374 W/m² -
1787837334 26.67° C 99% 1019.1 hPa 0 mm - 351 W/m² -
1787837029 26.11° C 99% 1019.1 hPa 0 mm - 335 W/m² -
1787836729 25.56° C 99% 1019 hPa 0 mm - 318 W/m² -
1787836424 25° C 99% 1019.1 hPa 0 mm - 302 W/m² -

* Rain latest hour (hover to see other rain measurements)
** Current wind speed in m/s (hover to see current wind gust speed)